Location: City of Moscow
(46.7306°N, 116.9989°W)
Time: 05:31:42
(UTC+00:00)

Nadezhda 4 Rocket - Pass Details

Date: 11 December 2025
Orbit: 948 x 992 km, 82.9° (Epoch: 13 January)

Event Time Altitude Azimuth Distance (km) Brightness Sun altitude
Rises 13:15:58 0° 210° (SSW) 3,690 6.8 -20.8°
Reaches altitude 10° 13:18:40 10° 218° (SW) 2,742 6.1 -20.3°
Maximum altitude 13:24:32 40° 287° (WNW) 1,415 4.3 -19.4°
Drops below altitude 10° 13:30:24 10° 356° (N) 2,735 6.2 -18.4°
Sets 13:33:06 0° 4° (N) 3,680 6.9 -17.9°
